NOAA 16 DEB, 41708

Orbit data source: Space-Track

NOAA 16 DEB, 41708 is space debris in SSO originally from a launch on Thu, 21 Sep 2000 UTC launched from the Air Force Western Test Range (AFWTR). Debris objects in space refer to the collection of defunct objects orbiting the Earth. Examples of debris include non-operational satellites, rocket bodies, and fragments generated from explosions, collisions, or faulty payload assembly.

Loading next visibility...
Identifier
41708, 2000-055PN
Orbit
SSO
Country
Flag of USUS
Related business
Manufacturer
Unknown
Mission
Spacecraft
Bus & Motor
Unknown
Mass
Unknown
Launch date (UTC)
2000-09-21 (25 years ago)
Launch vehicle
Unknown
Launch site
Air Force Western Test Range (AFWTR)
Object type
Payload
Rocket body
Debris
Shape & HBR
Unknown shape, 0.1 m
Radar Cross Section
Small (<0.1 m²)

Expand to show TLE details & history
Last TLE update: 21 hours ago

TLE from 21 hours ago
0 NOAA 16 DEB
1 41708U 00055PN  25293.85290425  .00015578  00000-0  48587-2 0  9996
2 41708  98.8612  54.8617 0012951 135.8202 224.4022 14.40868487492434
Epoch: 2025-10-20T20:28Z
TLE epoch observation values (Epoch: 2025-10-20T20:28:10.927Z)
Latitude
-0.00001°
Longitude
78.26691°
Altitude
765.176 km
Speed
7.468 km/s
True Right ascension
03h 39m 26s
True Declination
0° 00' 00"
Sunlit
Object was in full shadow at epoch
Visualization orbit readout
Latitude
Unknown
Longitude
Unknown
Altitude
Unknown
Speed
Unknown
Apparent Right ascension
Unknown
Apparent Declination
Unknown
Sunlit
N/A
Visualization observer readout
Local Sidereal Time
12:45:52
Azimuth
Unknown
Elevation
Unknown
Doppler factor
Unknown
Orbital elements
Apogee altitude
762.004 km
Perigee altitude
743.533 km
Semi-major axis
7,130.906 km
Eccentricity
0.0013
Inclination
98.8612°
RAAN
54.8617°
Arg. of periapsis
135.8202°
True anomaly
224.29848°
Mean anomaly
224.4022°
Eccentric anomaly
224.35033°
Mean motion
3.60434 °/min
Orbital period
99.88 mins
BSTAR
0.0048587
Loading maneuver chart data...
Computing Atmospheric mass density...

Documentation

Showing up to 5 results
|